Meath Environmental Platform

Observations for Trim Market St

Time AQI Temp °C Hum % Pres Pa CO μg/m³ H₂S μg/m³ NO μg/m³ NO₂ μg/m³ O₃ μg/m³ SO₂ μg/m³ PM1 μg/m³ PM2.5 μg/m³ PM10 μg/m³
Thursday 16 July 2026
18:04 2 30.7 35 66,092 0 28.36 0 15.93 33.21 0 7.84 13.83 20.9
18:03 2 30.8 35 66,129 0 31.96 0 17.71 39.31 0 8.55 13.3 19.24
18:02 2 30.9 35 66,149 0 30.53 0 16.9 38.81 0 6.41 11.7 15.06
18:01 2 30.9 34 66,143 0 31.82 0 17.92 39.97 0 8.55 13.86 19.26
18:00 2 31 34 66,167 0 30.63 0 17.52 31.67 0 8.55 13.87 19.28
17:59 2 31.1 34 66,165 0 32.05 0 19.2 31.26 0 8.55 17.1 23.49
17:57 2 31.2 34 66,192 0 31.43 0 18.32 41.32 0 8.55 14.44 20.16
17:52 2 31.6 33 66,242 0 32.87 0 16.24 39.35 0 8.55 15.6 21.11
17:50 2 31.8 32 66,240 0 31.87 0 14.82 36.39 0 7.84 13.47 17.73
17:48 2 31.9 32 66,264 0 39.77 0 20.91 40.95 0 5.7 10.78 13.49
17:45 2 32.3 31 66,301 0 36.45 0 18.8 32.62 0 7.84 14.08 20.38
17:37 2 33.2 30 66,410 0 39.18 0 18.26 38.17 1.09 6.41 11.49 17.07
17:36 2 33.4 29 66,429 0 31.88 0 16.73 34.79 0.88 8.55 14.76 20.55
17:35 2 33.5 29 66,453 0 29.5 0 9.11 29.98 1.26 7.84 13.68 18.82
17:34 2 33.6 29 66,427 0 36.45 0 11.8 38.52 2.3 7.13 11.51 15.35
17:33 2 33.8 29 66,449 0 39.56 0 15.35 43.53 2.03 7.13 12.61 17.1
17:32 2 34 29 66,478 0 35.86 0 18.14 32.19 1.26 8.55 15.9 21.48
17:31 2 34.1 28 66,481 0 38.01 0 16.94 38.46 1.89 7.13 14.28 19.76
17:30 2 34.3 28 66,513 0 39.03 0 15.21 40.06 2.56 9.98 17.57 26.78
17:29 2 34.5 28 66,519 0 38.8 0 16.49 36.61 2.41 8.55 13.23 18.05